TimeCDT,TemperatureF,Dew PointF,Humidity,Sea Level PressureIn,VisibilityMPH,Wind Direction,Wind SpeedMPH,Gust SpeedMPH,PrecipitationIn,Events,Conditions,WindDirDegrees,DateUTC
12:58 AM,28.0,26.6,94,30.40,10.0,Calm,Calm,-,N/A,,Clear,0,2013-03-27 05:58:00
1:58 AM,28.8,27.3,94,30.39,10.0,Calm,Calm,-,N/A,,Clear,0,2013-03-27 06:58:00
2:28 AM,28.4,26.6,93,30.37,2.0,Calm,Calm,-,N/A,,Clear,0,2013-03-27 07:28:00
2:33 AM,28.4,28.4,100,30.37,1.5,Calm,Calm,-,N/A,,Clear,0,2013-03-27 07:33:00
2:38 AM,28.4,26.6,93,30.37,4.0,Calm,Calm,-,N/A,,Clear,0,2013-03-27 07:38:00
2:43 AM,28.4,26.6,93,30.37,4.0,Calm,Calm,-,N/A,,Clear,0,2013-03-27 07:43:00
2:53 AM,28.4,26.6,93,30.37,9.0,Calm,Calm,-,N/A,,Clear,0,2013-03-27 07:53:00
2:58 AM,27.7,26.8,96,30.39,10.0,Calm,Calm,-,N/A,,Clear,0,2013-03-27 07:58:00
3:58 AM,26.4,25.3,96,30.39,10.0,Calm,Calm,-,N/A,,Clear,0,2013-03-27 08:58:00
4:58 AM,26.4,25.5,96,30.40,10.0,Calm,Calm,-,N/A,,Clear,0,2013-03-27 09:58:00
5:43 AM,24.8,24.8,100,30.39,1.5,Calm,Calm,-,N/A,,Clear,0,2013-03-27 10:43:00
5:48 AM,24.8,24.8,100,30.39,0.5,Calm,Calm,-,N/A,Fog,Light Freezing Fog,0,2013-03-27 10:48:00
5:53 AM,26.6,24.8,93,30.40,0.2,Calm,Calm,-,N/A,Fog,Light Freezing Fog,0,2013-03-27 10:53:00
5:58 AM,26.6,24.8,93,30.42,0.5,Calm,Calm,-,N/A,Fog,Light Freezing Fog,0,2013-03-27 10:58:00
6:37 AM,24.8,24.8,100,30.40,0.8,ESE,1.2,-,N/A,Fog,Fog,120,2013-03-27 11:37:00
6:46 AM,24.8,24.8,100,30.42,1.5,SE,1.2,-,N/A,,Clear,130,2013-03-27 11:46:00
6:58 AM,24.6,23.4,95,30.43,10.0,Calm,Calm,-,N/A,,Clear,0,2013-03-27 11:58:00
7:58 AM,29.1,28.6,98,30.44,10.0,Calm,Calm,-,N/A,,Clear,360,2013-03-27 12:58:00
8:58 AM,36.0,35.6,99,30.46,10.0,Calm,Calm,-,N/A,,Clear,350,2013-03-27 13:58:00
9:58 AM,43.9,27.7,53,30.47,10.0,Calm,Calm,-,N/A,,Clear,20,2013-03-27 14:58:00
10:58 AM,46.9,24.4,41,30.47,10.0,Variable,1.2,-,N/A,,Clear,0,2013-03-27 15:58:00
11:58 AM,49.5,24.8,38,30.45,10.0,Variable,2.3,-,N/A,,Clear,0,2013-03-27 16:58:00
12:58 PM,51.1,25.3,37,30.44,10.0,SSW,5.8,-,N/A,,Clear,200,2013-03-27 17:58:00
1:58 PM,52.3,26.1,36,30.40,10.0,Variable,5.8,-,N/A,,Clear,0,2013-03-27 18:58:00
2:58 PM,54.5,25.3,32,30.38,10.0,NW,8.1,-,N/A,,Clear,320,2013-03-27 19:58:00
3:58 PM,56.3,25.2,30,30.35,10.0,NW,5.8,-,N/A,,Clear,320,2013-03-27 20:58:00
4:58 PM,56.3,25.2,30,30.33,10.0,WSW,4.6,-,N/A,,Clear,250,2013-03-27 21:58:00
5:58 PM,55.9,25.7,31,30.32,10.0,NNW,8.1,-,N/A,,Clear,330,2013-03-27 22:58:00
6:58 PM,54.1,25.5,33,30.34,10.0,Calm,Calm,-,N/A,,Clear,0,2013-03-27 23:58:00
7:58 PM,46.0,33.8,62,30.32,10.0,East,1.2,-,N/A,,Clear,100,2013-03-28 00:58:00
8:58 PM,45.7,36.7,71,30.34,10.0,Calm,Calm,-,N/A,,Partly Cloudy,30,2013-03-28 01:58:00
9:58 PM,43.7,36.5,76,30.33,10.0,SE,1.2,-,N/A,,Overcast,130,2013-03-28 02:58:00
10:58 PM,41.0,36.9,85,30.33,10.0,Calm,Calm,-,N/A,,Partly Cloudy,0,2013-03-28 03:58:00
11:58 PM,38.8,35.8,89,30.32,10.0,Calm,Calm,-,N/A,,Clear,0,2013-03-28 04:58:00